FW7302 Weather Reports


time (UTC)temp
C
wind
direction
speed
KPH
gust
KPH
rain 1hr
cm
rain 24hr
cm
rain mn
cm
humidity
%
barometer
mb
20260509024306 14 312 0.0 0.0 0.00 0.00 0.00 94 1010.8
20260509023803 14 323 0.0 0.0 0.00 0.00 0.00 93 1010.4
20260509023301 14 323 0.0 0.0 0.00 0.00 0.00 93 1010.5
20260509022756 14 323 0.0 0.0 0.00 0.00 0.00 93 1010.4
20260509022255 14 324 0.0 0.0 0.00 0.00 0.00 93 1010.4
20260509021751 14 324 0.0 0.0 0.00 0.00 0.00 94 1010.5
20260509021249 14 326 0.0 0.0 0.00 0.00 0.00 93 1010.6
20260509020746 14 336 1.6 1.6 0.00 0.00 0.00 94 1010.5
20260509020244 15 314 0.0 0.0 0.00 0.00 0.00 94 1010.7
20260509015741 15 314 0.0 0.0 0.00 0.00 0.00 93 1010.7
20260509015239 15 315 0.0 0.0 0.00 0.00 0.00 93 1010.5
20260509014735 15 315 0.0 0.0 0.00 0.00 0.00 93 1010.7
20260509014233 15 315 0.0 0.0 0.00 0.00 0.00 92 1010.8
20260509013729 15 316 0.0 0.0 0.00 0.00 0.00 92 1010.5
20260509013224 15 316 0.0 0.0 0.00 0.00 0.00 92 1010.4
20260509012722 15 316 0.0 1.6 0.00 0.00 0.00 92 1010.3
20260509012218 15 305 0.0 0.0 0.00 0.00 0.00 92 1010.5
20260509011716 15 307 0.0 1.6 0.00 0.00 0.00 92 1010.3
20260509011214 15 317 0.0 0.0 0.00 0.00 0.00 91 1010.2
20260509010711 15 317 0.0 0.0 0.00 0.00 0.00 91 1010.0
20260509010207 15 324 0.0 0.0 0.00 0.00 0.00 90 1010.1
20260509005705 15 341 1.6 1.6 0.00 0.00 0.00 90 1010.0
20260509005201 15 317 0.0 0.0 0.00 0.00 0.00 90 1010.1
20260509004656 15 317 0.0 0.0 0.00 0.00 0.00 90 1010.3
20260509004154 15 324 0.0 0.0 0.00 0.00 0.00 89 1010.0
20260509003653 15 304 0.0 1.6 0.00 0.00 0.00 87 1010.1
20260509003150 16 304 0.0 0.0 0.00 0.00 0.00 85 1010.2
20260509002647 15 304 0.0 0.0 0.00 0.00 0.00 85 1010.1
20260509002144 16 300 0.0 0.0 0.00 0.00 0.00 85 1010.2
20260509001642 16 299 0.0 1.6 0.00 0.00 0.00 86 1010.2
20260509001137 16 302 1.6 1.6 0.00 0.00 0.00 86 1010.1
20260509000636 16 304 0.0 0.0 0.00 0.00 0.00 84 1010.0
20260509000132 16 304 0.0 0.0 0.00 0.00 0.00 83 1010.1
20260508235629 17 304 0.0 0.0 0.00 0.00 0.00 81 1010.0
20260508235126 17 303 0.0 0.0 0.00 0.00 0.00 81 1009.5
20260508234623 17 304 1.6 1.6 0.00 0.00 0.00 80 1009.6
20260508234120 17 305 0.0 1.6 0.00 0.00 0.00 79 1009.6
20260508233619 17 306 0.0 1.6 0.00 0.00 0.00 77 1010.0
20260508233116 18 306 0.0 1.6 0.00 0.00 0.00 76 1009.9
20260508232613 18 314 1.6 3.2 0.00 0.00 0.00 71 1009.9
20260508232109 18 307 3.2 3.2 0.00 0.00 0.00 70 1009.9
20260508231607 18 308 1.6 1.6 0.00 0.00 0.00 71 1010.0
20260508231104 18 298 1.6 1.6 0.00 0.00 0.00 70 1009.9
20260508230601 18 289 3.2 3.2 0.00 0.00 0.00 72 1010.1
20260508230057 18 280 3.2 3.2 0.00 0.00 0.00 69 1009.9
20260508225555 18 291 3.2 3.2 0.00 0.00 0.00 69 1009.8
20260508225051 18 288 1.6 1.6 0.00 0.00 0.00 68 1009.8
20260508224549 18 297 1.6 1.6 0.00 0.00 0.00 71 1009.9
20260508224046 19 287 1.6 1.6 0.00 0.00 0.00 67 1009.9
20260508223544 19 290 1.6 1.6 0.00 0.00 0.00 68 1010.1
20260508223041 19 303 1.6 1.6 0.00 0.00 0.00 67 1010.0
20260508222539 19 293 3.2 3.2 0.00 0.00 0.00 66 1009.9
20260508222035 19 297 3.2 3.2 0.00 0.00 0.00 65 1010.1
20260508221532 19 277 3.2 3.2 0.00 0.00 0.00 66 1009.8
20260508221027 19 305 3.2 3.2 0.00 0.00 0.00 63 1010.0
20260508220524 19 292 1.6 3.2 0.00 0.00 0.00 64 1009.9
20260508220021 19 285 1.6 1.6 0.00 0.00 0.00 64 1010.1
20260508215518 19 248 4.8 4.8 0.00 0.00 0.00 61 1010.0
20260508215014 19 283 3.2 3.2 0.00 0.00 0.00 62 1009.9
20260508214512 20 273 3.2 3.2 0.00 0.00 0.00 61 1009.9
20260508214008 20 251 6.4 6.4 0.00 0.00 0.00 58 1009.6
20260508213506 20 259 6.4 6.4 0.00 0.00 0.00 59 1009.9
20260508213001 20 295 3.2 4.8 0.00 0.00 0.00 60 1010.0
20260508212458 20 298 3.2 3.2 0.00 0.00 0.00 58 1009.8
20260508211954 20 315 3.2 4.8 0.00 0.00 0.00 59 1010.0
20260508211449 20 305 9.7 11.3 0.00 0.00 0.00 58 1010.0
20260508210946 20 284 6.4 9.7 0.00 0.00 0.00 57 1009.9
20260508210443 20 285 4.8 4.8 0.00 0.00 0.00 58 1010.0
20260508205939 20 322 6.4 6.4 0.00 0.00 0.00 56 1010.0
20260508205437 20 307 3.2 4.8 0.00 0.00 0.00 59 1010.1
20260508204933 20 266 3.2 3.2 0.00 0.00 0.00 56 1010.1
20260508204430 20 257 8.0 9.7 0.00 0.00 0.00 55 1010.1
20260508203925 20 233 8.0 9.7 0.00 0.00 0.00 56 1010.1
20260508203422 20 306 3.2 4.8 0.00 0.00 0.00 56 1010.2
20260508202918 20 286 8.0 9.7 0.00 0.00 0.00 57 1010.4
20260508202415 20 281 6.4 6.4 0.00 0.00 0.00 55 1010.0
20260508201912 20 286 1.6 3.2 0.00 0.00 0.00 56 1010.3
20260508201409 20 261 6.4 6.4 0.00 0.00 0.00 55 1010.5
20260508200906 20 298 6.4 6.4 0.00 0.00 0.00 52 1010.6
20260508200403 21 289 9.7 12.9 0.00 0.00 0.00 52 1010.5
20260508195858 21 329 9.7 12.9 0.00 0.00 0.00 52 1010.4
20260508195355 21 299 1.6 1.6 0.00 0.00 0.00 52 1010.7
20260508194851 20 298 6.4 9.7 0.00 0.00 0.00 53 1010.8
20260508194348 21 269 6.4 12.9 0.00 0.00 0.00 58 1010.8
20260508193845 21 317 3.2 4.8 0.00 0.00 0.00 54 1010.7
20260508193342 20 313 1.6 3.2 0.00 0.00 0.00 54 1010.9
20260508192838 20 270 3.2 3.2 0.00 0.00 0.00 53 1011.1
20260508192336 20 291 4.8 6.4 0.00 0.00 0.00 54 1011.1
20260508191833 21 328 14.5 16.1 0.00 0.00 0.00 52 1011.3
20260508191330 20 318 3.2 4.8 0.00 0.00 0.00 55 1011.2
20260508190827 20 298 1.6 1.6 0.00 0.00 0.00 54 1011.3
20260508190323 20 250 3.2 4.8 0.00 0.00 0.00 55 1011.2
20260508185820 20 350 1.6 3.2 0.00 0.00 0.00 56 1011.2
20260508185317 20 304 4.8 6.4 0.00 0.00 0.00 56 1011.1
20260508184814 20 273 4.8 4.8 0.00 0.00 0.00 52 1011.5
20260508184311 20 301 6.4 6.4 0.00 0.00 0.00 53 1011.5
20260508183808 20 255 8.0 9.7 0.00 0.00 0.00 52 1011.8
20260508183305 20 346 3.2 3.2 0.00 0.00 0.00 55 1011.7
20260508182800 21 300 11.3 14.5 0.00 0.00 0.00 57 1011.8
20260508182257 21 300 3.2 3.2 0.00 0.00 0.00 52 1011.9
20260508181753 21 222 11.3 14.5 0.00 0.00 0.00 55 1012.0
20260508181250 20 344 1.6 3.2 0.00 0.00 0.00 51 1011.7
20260508180747 20 244 4.8 6.4 0.00 0.00 0.00 54 1011.8
20260508180244 20 243 6.4 6.4 0.00 0.00 0.00 55 1012.1
20260508175740 20 271 6.4 6.4 0.00 0.00 0.00 58 1012.1
20260508175237 19 266 4.8 4.8 0.00 0.00 0.00 57 1012.4
20260508174735 19 268 8.0 11.3 0.00 0.00 0.00 56 1012.3
20260508174232 19 239 4.8 6.4 0.00 0.00 0.00 55 1012.3
20260508173728 19 249 4.8 4.8 0.00 0.00 0.00 60 1012.4
20260508173225 19 274 4.8 4.8 0.00 0.00 0.00 59 1012.3
20260508172721 19 274 1.6 1.6 0.00 0.00 0.00 61 1012.4
20260508172218 20 299 1.6 1.6 0.00 0.00 0.00 58 1012.3
20260508171715 20 284 1.6 3.2 0.00 0.00 0.00 58 1012.4
20260508171211 19 288 1.6 1.6 0.00 0.00 0.00 59 1012.4
20260508170708 20 253 6.4 9.7 0.00 0.00 0.00 55 1012.6
20260508170206 20 236 6.4 6.4 0.00 0.00 0.00 61 1012.8
20260508165703 20 227 6.4 9.7 0.00 0.00 0.00 58 1013.1
20260508165200 20 204 3.2 6.4 0.00 0.00 0.00 62 1013.0
20260508164656 19 224 8.0 12.9 0.00 0.00 0.00 62 1012.9
20260508164153 19 316 3.2 4.8 0.00 0.00 0.00 65 1013.2
20260508163651 18 232 6.4 6.4 0.00 0.00 0.00 63 1012.9
20260508163148 18 311 8.0 9.7 0.00 0.00 0.00 66 1013.4
20260508162643 18 224 8.0 11.3 0.00 0.00 0.00 64 1013.4
20260508162141 18 257 6.4 6.4 0.00 0.00 0.00 62 1013.3
20260508161637 18 232 9.7 12.9 0.00 0.00 0.00 62 1013.3
20260508161135 18 294 11.3 12.9 0.00 0.00 0.00 65 1013.3
20260508160633 18 240 6.4 9.7 0.00 0.00 0.00 64 1013.4
20260508160130 17 294 3.2 3.2 0.00 0.00 0.00 65 1013.5
20260508155622 17 221 8.0 9.7 0.00 0.00 0.00 66 1013.6
20260508155119 17 287 8.0 9.7 0.00 0.00 0.00 64 1013.6
20260508154615 18 256 12.9 16.1 0.00 0.00 0.00 64 1013.8
20260508154112 18 278 3.2 4.8 0.00 0.00 0.00 66 1014.1
20260508153609 18 245 6.4 9.7 0.00 0.00 0.00 63 1014.0
20260508153106 17 221 4.8 4.8 0.00 0.00 0.00 63 1014.1
20260508152603 18 261 3.2 4.8 0.00 0.00 0.00 64 1014.1
20260508152058 18 86 3.2 3.2 0.00 0.00 0.00 65 1014.1
20260508151555 18 205 6.4 6.4 0.00 0.00 0.00 61 1014.0
20260508151052 18 250 6.4 6.4 0.00 0.00 0.00 63 1014.1
20260508150549 18 191 1.6 3.2 0.00 0.00 0.00 68 1013.8
20260508150044 17 181 4.8 6.4 0.00 0.00 0.00 66 1013.7
20260508145536 18 284 6.4 6.4 0.00 0.00 0.00 65 1013.8
20260508145032 17 326 1.6 1.6 0.00 0.00 0.00 70 1013.5
20260508144530 17 246 6.4 9.7 0.00 0.00 0.00 67 1013.7
20260508144027 17 331 4.8 9.7 0.00 0.00 0.00 67 1013.4
20260508143525 17 219 3.2 4.8 0.00 0.00 0.00 66 1013.6
20260508143021 17 357 1.6 4.8 0.00 0.00 0.00 71 1013.8
20260508142518 17 287 1.6 3.2 0.00 0.00 0.00 68 1014.1
20260508142015 17 277 3.2 3.2 0.00 0.00 0.00 67 1014.1
20260508141511 17 251 6.4 6.4 0.00 0.00 0.00 71 1014.1
20260508141009 16 186 1.6 4.8 0.00 0.00 0.00 75 1014.2
20260508140506 16 225 6.4 6.4 0.00 0.00 0.00 69 1014.1
20260508140002 16 301 1.6 1.6 0.00 0.00 0.00 73 1014.2
20260508135458 16 294 3.2 3.2 0.00 0.00 0.00 73 1014.3
20260508134954 16 325 1.6 1.6 0.00 0.00 0.00 74 1014.1
20260508134451 16 289 4.8 6.4 0.00 0.00 0.00 74 1014.2
20260508133948 16 29 3.2 4.8 0.00 0.00 0.00 75 1014.3
20260508133445 16 292 0.0 1.6 0.00 0.00 0.00 77 1014.3
20260508132942 16 21 3.2 4.8 0.00 0.00 0.00 77 1014.3
20260508132440 16 251 1.6 6.4 0.00 0.00 0.00 78 1014.2
20260508131937 15 270 1.6 1.6 0.00 0.00 0.00 79 1014.1
20260508131432 15 316 3.2 3.2 0.00 0.00 0.00 79 1014.1
20260508130929 15 344 1.6 1.6 0.00 0.00 0.00 78 1014.0
20260508130426 15 43 4.8 4.8 0.00 0.00 0.00 78 1013.8
20260508125922 15 248 4.8 4.8 0.00 0.00 0.00 78 1013.6
20260508125418 15 19 1.6 3.2 0.00 0.00 0.00 80 1013.7
20260508124916 14 112 3.2 3.2 0.00 0.00 0.00 79 1013.4
20260508124413 14 95 3.2 3.2 0.00 0.00 0.00 80 1013.4
20260508123911 14 115 3.2 4.8 0.00 0.00 0.00 80 1013.5
20260508123410 14 114 4.8 6.4 0.00 0.00 0.00 79 1013.2
20260508122905 13 61 3.2 3.2 0.00 0.00 0.00 82 1013.4
20260508122403 13 339 1.6 3.2 0.00 0.00 0.00 84 1013.3
20260508121900 13 14 1.6 3.2 0.00 0.00 0.00 85 1013.2
20260508121358 12 323 0.0 0.0 0.00 0.00 0.00 88 1013.3
20260508120855 12 330 1.6 1.6 0.00 0.00 0.00 88 1013.2
20260508120353 12 331 0.0 0.0 0.00 0.00 0.00 90 1013.0
20260508115850 12 337 0.0 1.6 0.00 0.00 0.00 90 1013.0
20260508115348 11 317 0.0 0.0 0.00 0.00 0.00 91 1012.9
20260508114844 11 330 0.0 0.0 0.00 0.00 0.00 92 1013.1
20260508114341 11 330 0.0 0.0 0.00 0.00 0.00 92 1012.9
20260508113837 11 332 0.0 0.0 0.00 0.00 0.00 91 1012.8
20260508113336 11 331 0.0 0.0 0.00 0.00 0.00 91 1012.6
20260508112831 10 337 0.0 1.6 0.00 0.00 0.00 92 1012.5
20260508112323 10 341 0.0 1.6 0.00 0.00 0.00 93 1012.3
20260508111819 10 17 1.6 1.6 0.00 0.00 0.00 94 1012.0
20260508111317 10 18 1.6 1.6 0.00 0.00 0.00 94 1012.2
20260508110814 10 330 0.0 0.0 0.00 0.00 0.00 93 1012.0
20260508110312 10 332 0.0 1.6 0.00 0.00 0.00 92 1011.9
20260508105811 10 336 0.0 1.6 0.00 0.00 0.00 92 1012.0
20260508105308 10 326 0.0 0.0 0.00 0.00 0.00 91 1011.7
20260508104805 10 343 0.0 1.6 0.00 0.00 0.00 89 1011.7
20260508104302 10 318 0.0 0.0 0.00 0.00 0.00 92 1011.7
20260508103759 10 317 0.0 0.0 0.00 0.00 0.00 92 1011.7
20260508103256 10 331 0.0 0.0 0.00 0.00 0.00 90 1011.7
20260508102754 10 334 0.0 0.0 0.00 0.00 0.00 91 1011.6
20260508102252 10 331 0.0 0.0 0.00 0.00 0.00 91 1011.5
20260508101749 11 331 0.0 0.0 0.00 0.00 0.00 89 1011.5
20260508101246 11 10 1.6 1.6 0.00 0.00 0.00 88 1011.3
20260508100744 11 340 0.0 0.0 0.00 0.00 0.00 88 1011.2
20260508100241 11 336 0.0 1.6 0.00 0.00 0.00 88 1011.1
20260508095737 11 332 0.0 0.0 0.00 0.00 0.00 88 1011.0
20260508095235 11 350 1.6 1.6 0.00 0.00 0.00 88 1011.0
20260508094732 11 329 0.0 0.0 0.00 0.00 0.00 88 1010.9
20260508094229 11 329 0.0 0.0 0.00 0.00 0.00 87 1010.8
20260508093726 11 329 0.0 0.0 0.00 0.00 0.00 87 1011.4
20260508093224 11 318 0.0 0.0 0.00 0.00 0.00 88 1010.8
20260508092720 10 331 0.0 0.0 0.00 0.00 0.00 90 1010.9
20260508092219 10 330 0.0 0.0 0.00 0.00 0.00 90 1010.8
20260508091716 10 337 0.0 1.6 0.00 0.00 0.00 91 1010.8
20260508091213 10 329 0.0 0.0 0.00 0.00 0.00 92 1010.9
20260508090711 10 329 0.0 0.0 0.00 0.00 0.00 92 1010.6
20260508090208 10 335 1.6 1.6 0.00 0.00 0.00 94 1010.8
20260508085703 10 334 0.0 0.0 0.00 0.00 0.00 94 1010.4
20260508085201 10 335 0.0 0.0 0.00 0.00 0.00 94 1010.6
20260508084657 10 340 1.6 1.6 0.00 0.00 0.00 94 1010.6
20260508084155 10 314 0.0 0.0 0.00 0.00 0.00 93 1010.4
20260508083652 10 314 0.0 0.0 0.00 0.00 0.00 92 1010.6
20260508083150 10 337 0.0 0.0 0.00 0.00 0.00 92 1010.6
20260508082644 10 336 0.0 0.0 0.00 0.00 0.00 93 1010.5
20260508082141 10 337 0.0 1.6 0.00 0.00 0.00 94 1010.8
20260508081634 10 337 0.0 1.6 0.00 0.00 0.00 95 1010.4
20260508081130 10 336 0.0 0.0 0.00 0.00 0.00 94 1010.5
20260508080627 10 336 0.0 0.0 0.00 0.00 0.00 94 1010.3
20260508080125 10 341 0.0 1.6 0.00 0.00 0.00 93 1010.4
20260508075621 10 336 0.0 0.0 0.00 0.00 0.00 91 1010.4
20260508075118 11 336 0.0 0.0 0.00 0.00 0.00 90 1010.6
20260508074616 11 335 0.0 1.6 0.00 0.00 0.00 89 1010.3
20260508074113 11 335 0.0 0.0 0.00 0.00 0.00 89 1010.4
20260508073610 11 331 0.0 0.0 0.00 0.00 0.00 89 1010.7
20260508073108 11 331 0.0 0.0 0.00 0.00 0.00 87 1010.5
20260508072603 11 331 0.0 0.0 0.00 0.00 0.00 87 1010.5
20260508072101 11 331 0.0 0.0 0.00 0.00 0.00 86 1010.4
20260508071559 11 330 0.0 0.0 0.00 0.00 0.00 86 1010.4
20260508071057 11 330 0.0 0.0 0.00 0.00 0.00 86 1010.5
20260508070554 11 330 0.0 0.0 0.00 0.00 0.00 86 1010.4
20260508070052 11 331 0.0 0.0 0.00 0.00 0.00 86 1010.2
20260508065549 11 334 0.0 0.0 0.00 0.00 0.00 87 1010.3
20260508065047 11 334 1.6 1.6 0.00 0.00 0.00 87 1010.0
20260508064544 11 344 0.0 1.6 0.00 0.00 0.00 89 1010.2
20260508064042 11 335 1.6 1.6 0.00 0.00 0.00 90 1009.9
20260508063539 11 332 0.0 0.0 0.00 0.00 0.00 90 1009.9
20260508063037 11 339 1.6 1.6 0.00 0.00 0.00 90 1009.8
20260508062534 11 329 0.0 0.0 0.00 0.00 0.00 90 1009.9
20260508062031 11 329 0.0 0.0 0.00 0.00 0.00 90 1010.1
20260508061529 11 329 0.0 0.0 0.00 0.00 0.00 90 1010.1
20260508061025 11 333 0.0 0.0 0.00 0.00 0.00 91 1010.1
20260508060522 11 332 0.0 0.0 0.00 0.00 0.00 89 1010.2
20260508060020 11 332 0.0 0.0 0.00 0.00 0.00 89 1010.3
20260508055515 11 332 0.0 0.0 0.00 0.00 0.00 89 1010.4
20260508055012 11 332 0.0 0.0 0.00 0.00 0.00 89 1010.4
20260508054509 11 332 0.0 0.0 0.00 0.00 0.00 89 1010.4
20260508054006 11 332 0.0 0.0 0.00 0.00 0.00 89 1010.3
20260508053502 12 332 0.0 0.0 0.00 0.00 0.00 87 1010.2
20260508053001 12 333 0.0 0.0 0.00 0.00 0.00 87 1010.3
20260508052458 11 331 0.0 0.0 0.00 0.00 0.00 89 1010.4
20260508051954 11 330 0.0 0.0 0.00 0.00 0.00 90 1010.3
20260508051450 12 330 0.0 0.0 0.00 0.00 0.00 90 1010.0
20260508050946 12 330 0.0 0.0 0.00 0.00 0.00 89 1010.0
20260508050443 12 330 0.0 0.0 0.00 0.00 0.00 88 1010.3
20260508045939 12 331 0.0 0.0 0.00 0.00 0.00 87 1010.3
20260508045436 12 330 0.0 0.0 0.00 0.00 0.00 86 1010.2
20260508044933 12 330 0.0 0.0 0.00 0.00 0.00 87 1010.0
20260508044431 12 330 0.0 0.0 0.00 0.00 0.00 87 1010.1
20260508043926 12 330 0.0 0.0 0.00 0.00 0.00 87 1010.1
20260508043424 13 330 0.0 0.0 0.00 0.00 0.00 86 1009.8
20260508042920 13 330 0.0 0.0 0.00 0.00 0.00 86 1010.0
20260508042418 13 331 0.0 0.0 0.00 0.00 0.00 85 1010.1
20260508041914 13 337 0.0 0.0 0.00 0.00 0.00 85 1009.9
20260508041411 13 341 0.0 0.0 0.00 0.00 0.00 85 1009.8
20260508040907 13 349 0.0 1.6 0.00 0.00 0.00 86 1009.6
20260508040405 13 356 1.6 1.6 0.00 0.00 0.00 87 1009.8
20260508035902 13 355 0.0 0.0 0.00 4.39 4.39 87 1010.0
20260508035354 13 356 1.6 1.6 0.00 4.39 4.39 86 1009.8
20260508034850 13 355 1.6 1.6 0.00 4.39 4.39 86 1009.6
20260508034348 13 356 1.6 1.6 0.00 4.39 4.39 86 1009.8
20260508033845 13 359 0.0 0.0 0.00 4.39 4.39 87 1009.9
20260508033343 14 359 0.0 0.0 0.00 4.39 4.39 86 1009.8
20260508032840 13 359 0.0 1.6 0.00 4.39 4.39 86 1010.1
20260508032337 13 359 0.0 0.0 0.00 4.39 4.39 87 1009.9
20260508031834 14 359 0.0 1.6 0.00 4.39 4.39 86 1009.8
20260508031331 14 359 0.0 0.0 0.00 4.39 4.39 86 1009.4
20260508030827 14 359 0.0 0.0 0.00 4.39 4.39 85 1009.6
20260508030324 15 359 0.0 0.0 0.00 4.39 4.39 83 1009.6
20260508025821 15 359 0.0 0.0 0.00 4.39 4.39 81 1009.5
20260508025318 15 359 0.0 0.0 0.00 4.39 4.39 81 1009.3
20260508024815 15 0 1.6 3.2 0.00 4.39 4.39 81 1009.2